This is the latest recevied weather packets stored in our database for station/object KD4KKF. If no packets are shown the sender has not sent any weather packets the latest 10 day(s).
| Time | Temp. | Humidity | Pressure | Rain* | Wind** | Luminosity | Snow |
|---|---|---|---|---|---|---|---|
| 1778110983 | 16.67° C | 99% | 1011.7 hPa | 0 mm | - | 10 W/m² | - |
| 1778110681 | 16.67° C | 99% | 1011.9 hPa | 0 mm | - | 9 W/m² | - |
| 1778110376 | 16.67° C | 99% | 1011.7 hPa | 0 mm | - | 16 W/m² | - |
| 1778110073 | 17.22° C | 99% | 1011.4 hPa | 0 mm | - | 13 W/m² | - |
| 1778109768 | 17.22° C | 99% | 1011.5 hPa | 0 mm | - | 19 W/m² | - |
| 1778109465 | 17.22° C | 99% | 1011.8 hPa | 0 mm | - | 26 W/m² | - |
| 1778109164 | 17.22° C | 99% | 1011.6 hPa | 0 mm | - | 36 W/m² | - |
| 1778108855 | 17.78° C | 99% | 1011.5 hPa | 0 mm | - | 30 W/m² | - |
| 1778108552 | 17.78° C | 99% | 1011.7 hPa | 0 mm | - | 16 W/m² | - |
| 1778108248 | 18.33° C | 99% | 1011.3 hPa | 0 mm | - | 17 W/m² | - |
| 1778107946 | 18.33° C | 99% | 1011 hPa | 0 mm | - | 39 W/m² | - |
| 1778107641 | 18.89° C | 99% | 1010.8 hPa | 0 mm | - | 27 W/m² | - |
| 1778107339 | 19.44° C | 99% | 1011.1 hPa | 0 mm | - | 23 W/m² | - |
| 1778107035 | 20° C | 99% | 1010.8 hPa | 0 mm | - | 22 W/m² | - |
| 1778106731 | 20.56° C | 99% | 1010.6 hPa | 0 mm | - | 49 W/m² | - |
| 1778106428 | 21.11° C | 99% | 1010.2 hPa | 0 mm | - | 102 W/m² | - |
| 1778106123 | 21.11° C | 99% | 1010.6 hPa | 0 mm | - | 77 W/m² | - |
| 1778105822 | 21.11° C | 99% | 1010.2 hPa | 0 mm | - | 72 W/m² | - |
| 1778105520 | 21.11° C | 99% | 1010 hPa | 0 mm | - | 58 W/m² | - |
| 1778105216 | 21.67° C | 99% | 1010 hPa | 0 mm | - | 112 W/m² | - |
| 1778104911 | 21.67° C | 99% | 1010.3 hPa | 0 mm | - | 83 W/m² | - |
| 1778104608 | 21.67° C | 99% | 1010 hPa | 0 mm | - | 75 W/m² | - |
| 1778104303 | 21.67° C | 99% | 1010.1 hPa | 0 mm | - | 61 W/m² | - |
| 1778104000 | 21.67° C | 99% | 1010 hPa | 0 mm | - | 54 W/m² | - |
| 1778103698 | 21.67° C | 99% | 1009.9 hPa | 0 mm | - | 150 W/m² | - |
* Rain latest hour (hover to see other rain measurements)
** Current wind speed in m/s (hover to see current wind gust speed)